Temp_Advection
nan nan nan nan nan nan nan nan nan nan nan nan nan nan nan nan nan nan nan nan nan nan nan nan nan nan nan nan nan nan nan nan nan nan nan nan nan nan nan nan nan nan nan nan nan
nan 0 0 0 0 0 -0 -0 0 0 0 0 -0 -0 -0 -0 -0 0 -0 0 -0 -0 -0 -0 -0 -0 -0 -0 -0 -0 -0 -0 -0 -0 -0 0 0 0 -0 -0 -0 -0 -0 0 nan
nan -0 -0 -0 -0 0 0 -0 -0 0 0 0 0 -0 -0 0 -0 -0 0 0 0 -0 -0 -0 -0 -0 -0 -0 -0 -0 -0 -0 -0 -0 -0 0 0 0 -0 -0 -0 0 -0 0 nan
nan 0 -0 -0 0 -0 -0 -0 0 0 0 0 0 -0 -0 -0 0 -0 -0 0 0 0 -0 -0 -0 -0 -0 -0 -0 -0 -0 -0 -0 0 0 0 -0 -0 0 0 -0 -0 -0 0 nan
nan -0 -0 -0 -0 0 0 -0 -0 0 0 0 0 -0 -0 -0 -0 -0 -0 -0 0 -0 -0 -0 -0 -0 -0 -0 -0 -0 -0 -0 0 0 0 -0 -0 -0 0 -0 -0 -0 -0 -0 nan
nan -0 -0 -0 -0 -0 0 0 0 0 0 0 0 0 0 -0 -0 -0 -0 -0 0 -0 -0 -0 -0 -0 -0 0 0 -0 0 -0 -0 0 0 -0 -0 0 0 -0 -0 -0 -0 0 nan
nan -0 -0 -0 -0 -0 -0 0 0 0 0 0 0 0 -0 -0 0 -0 -0 -0 0 -0 -0 -0 -0 -0 0 -0 -0 0 -0 -0 -0 0 0 -0 0 0 -0 -0 -0 0 0 0 nan
nan -0 -0 -0 -0 -0 -0 -0 0 0 0 0 0 0 -0 0 -0 -0 -0 0 0 0 -0 -0 -0 -0 -0 -0 -0 -0 -0 -0 -0 -0 -0 -0 0 0 0 0 0 0 0 0 nan
nan -0 -0 -0 -0 -0 -0 -0 -0 -0 -0 0 0 0 -0 0 -0 -0 -0 -0 0 -0 0 0 -0 -0 -0 -0 -0 -0 -0 -0 -0 0 -0 0 0 0 0 0 0 -0 -0 0 nan
nan 0 -0 -0 -0 -0 -0 -0 -0 0 0 0 0 0 0 0 0 -0 -0 -0 0 0 0 0 -0 -0 -0 0 -0 0 0 0 -0 -0 -0 0 0 -0 -0 0 0 0 -0 0 nan
nan 0 -0 -0 -0 -0 -1 -0 -0 -0 -0 -0 0 0 0 0 0 -0 -0 -0 0 0 0 -0 -0 -0 -0 -0 -0 0 0 0 -0 -0 -0 0 -0 0 -0 -0 0 0 0 0 nan
nan 0 0 -0 -0 -0 -0 -0 0 0 -1 -0 1 0 -0 -0 0 -0 -0 0 0 0 -0 -0 0 -0 0 -0 0 0 -0 0 -0 -0 0 0 0 -0 -0 0 0 0 0 0 nan
nan 0 0 0 -0 -0 -0 -0 -0 0 0 -0 0 -0 -0 -0 0 -0 -0 0 0 -0 0 0 0 0 -0 -0 -0 -0 0 -0 0 -0 0 -0 0 -0 -0 -0 0 0 0 0 nan
nan 0 0 0 -0 -0 0 0 0 0 0 -0 -0 -0 -0 -0 -0 -0 -0 -0 -0 0 0 -0 -0 -0 0 0 -0 -0 0 0 0 0 0 -0 0 0 -0 -1 -1 -0 -0 -0 nan
nan 0 0 0 0 -0 0 0 0 0 0 -0 0 -0 -0 -0 -0 -0 -0 -0 0 0 0 -0 -0 -0 -0 0 -0 0 0 -0 0 0 -0 -0 -0 0 -0 -1 -1 -0 -0 -0 nan
nan 0 0 0 0 0 0 0 0 0 0 0 -0 -0 -0 -0 0 -0 -0 -0 -0 0 -0 0 -0 -0 0 -0 0 -0 -0 -0 -0 -0 -0 0 0 0 -0 -0 -2 -1 -0 -0 nan
nan 1 0 0 0 0 0 0 0 -0 -0 0 -0 -0 -0 -0 -0 -0 -0 -0 0 0 0 -0 -0 -0 -0 -0 -0 -0 -1 -0 0 -0 -0 -0 0 0 0 0 0 -1 -1 -0 nan
nan 0 0 0 0 0 0 0 -0 0 0 -0 -0 -0 0 -0 -0 -0 -0 -0 -0 0 0 0 0 -0 0 -0 0 -0 -0 0 0 0 -0 0 0 -0 -0 1 2 1 0 -0 nan
nan 0 1 0 0 0 0 -0 0 0 -0 -0 -0 0 -0 -0 0 -0 -0 -0 -0 0 0 0 0 -0 -0 -0 0 0 -0 -0 -0 0 0 -0 -0 -0 -0 -0 -0 -0 -1 -1 nan
nan 0 0 1 1 0 -0 -0 0 -0 0 0 -0 0 -0 0 0 -0 -0 -0 -0 -0 -0 0 0 -0 -0 -0 -0 -0 -0 -0 0 0 -0 -0 -0 0 -1 -1 -1 -1 -0 -0 nan
nan 0 0 1 0 0 -0 0 0 0 0 0 0 0 0 0 0 0 0 -0 -0 -0 -0 -0 0 -0 -0 -0 -0 -0 -0 0 -0 -0 0 -0 0 1 0 -0 -0 -1 0 1 nan
nan 0 0 0 -0 -0 0 0 -0 0 0 0 0 0 0 0 0 -0 0 -0 -0 -0 -0 -0 -0 0 0 0 -0 -0 -0 -0 -0 0 -0 0 -0 0 0 -0 1 0 0 1 nan
nan -0 1 1 0 0 0 0 0 0 -0 0 0 -0 0 0 0 -0 -0 0 0 -0 -0 -0 -0 0 0 -0 -0 0 -0 -0 -1 -0 -0 1 -0 0 0 -0 0 1 0 0 nan
nan -0 -0 0 0 -0 -0 -0 0 0 0 0 0 -0 0 0 -0 0 0 0 0 0 0 -0 -0 0 0 0 -0 0 0 0 -0 -0 -0 -1 -1 -0 0 -0 -1 0 0 -0 nan
nan -0 -0 -0 -0 -0 -0 -0 -0 0 0 -0 -0 -0 0 0 0 -0 -0 0 0 0 -0 0 -0 0 -0 0 -0 0 -0 0 0 -0 -0 0 -0 -0 1 -0 -0 -0 -0 -0 nan
nan -0 -0 -0 -0 -0 -0 -0 -0 -0 -0 -0 -0 0 0 -0 -0 0 -0 -0 0 -0 -0 -0 0 -0 -0 0 -0 -0 0 -0 -0 0 1 -0 -0 -0 -0 1 0 0 -0 -0 nan
nan nan nan nan nan nan nan nan nan nan nan nan nan nan nan nan nan nan nan nan nan nan nan nan nan nan nan nan nan nan nan nan nan nan nan nan nan nan nan nan nan nan nan nan nan
Wind_Speed
11 12 12 12 13 13 14 15 13 11 10 9 10 6 9 8 2 6 10 9 6 5 6 8 3 5 7 6 6 2 4 2 6 5 3 3 1 3 3 3 5 5 24 34 38
11 12 13 13 12 14 14 14 15 13 11 9 9 7 8 6 5 4 11 6 4 6 8 6 2 4 3 3 3 4 3 7 6 5 3 2 4 1 1 6 5 24 32 35 39
12 12 13 14 14 13 14 15 15 14 13 11 9 7 7 6 5 4 10 6 4 6 9 6 5 3 3 3 3 2 3 4 4 7 6 2 3 3 1 3 15 26 36 35 38
14 14 14 14 16 17 16 15 15 14 12 12 10 8 8 6 3 7 10 5 4 6 8 3 2 3 3 1 2 1 2 3 2 5 4 3 8 4 3 8 21 25 28 35 35
15 14 14 14 14 16 17 18 15 14 11 11 9 8 6 4 5 8 11 5 2 4 7 5 8 3 3 1 3 2 2 5 5 7 4 10 3 4 3 20 26 29 27 31 35
14 14 14 14 15 15 16 17 16 12 12 11 9 7 6 3 3 10 8 2 0 3 7 9 6 3 1 1 1 2 3 7 5 5 8 5 1 3 5 25 31 32 31 32 33
17 16 14 14 14 15 16 16 15 13 11 11 8 8 7 8 5 8 9 2 1 3 4 5 6 3 4 2 3 3 5 4 3 5 3 8 2 3 8 23 27 31 31 35 35
17 17 15 13 14 15 15 14 13 12 13 7 7 5 5 6 7 7 9 3 2 3 2 2 5 3 3 4 4 3 4 4 3 3 4 3 5 4 8 21 28 33 34 38 41
20 17 17 16 15 16 16 16 15 11 10 8 6 5 6 5 6 8 8 3 3 4 2 2 2 2 4 3 3 5 2 1 6 1 0 4 3 5 8 16 25 32 35 38 41
21 17 17 17 18 18 19 18 13 10 7 6 6 5 6 3 7 10 9 6 3 2 3 1 3 3 4 4 2 4 3 3 4 3 2 2 4 4 7 15 23 30 36 38 42
19 20 17 16 18 19 20 16 8 6 9 8 4 6 6 8 8 3 10 5 4 2 2 3 4 0 3 2 3 4 3 4 4 4 5 3 4 3 7 15 17 29 35 40 45
19 19 17 16 17 17 17 12 10 8 11 13 12 9 8 6 4 2 5 4 3 3 3 3 1 2 3 3 3 5 4 3 4 3 3 4 5 4 5 12 18 27 34 38 44
21 20 18 15 17 17 14 11 9 8 5 4 3 4 3 3 2 5 5 1 1 3 1 4 1 2 2 2 4 3 3 3 3 6 2 2 5 5 7 8 26 31 35 39 43
25 20 17 15 15 9 10 9 7 8 2 1 1 2 1 0 1 5 5 2 2 3 4 1 1 1 1 1 1 3 2 2 5 1 1 4 4 3 8 15 21 33 38 41 45
27 22 16 12 9 11 11 6 4 3 5 3 1 1 3 3 3 1 6 2 2 3 4 1 1 2 2 1 1 5 6 3 2 2 2 5 2 4 5 15 23 26 38 41 46
25 27 19 13 16 13 9 2 1 3 5 1 0 1 2 4 2 3 1 3 3 2 4 2 2 2 2 4 1 5 1 5 4 2 3 5 3 3 3 8 17 23 36 42 45
19 21 14 19 11 9 5 6 2 3 3 1 0 1 4 2 2 3 4 5 1 3 1 1 1 2 3 4 2 6 5 3 5 4 4 4 1 6 5 6 5 16 31 39 42
17 12 17 15 13 6 11 2 4 2 4 2 3 2 2 1 0 1 2 1 2 2 3 3 2 5 6 3 2 4 3 4 4 2 5 5 3 5 4 14 17 19 26 34 42
19 15 17 13 9 12 6 3 5 5 4 4 0 1 1 1 1 1 1 3 1 2 4 3 1 1 3 4 2 1 4 3 6 1 3 4 5 3 6 11 19 22 31 36 42
14 17 15 12 11 15 0 5 4 1 5 3 5 4 3 3 2 2 1 1 2 1 2 2 3 2 1 1 8 4 4 3 3 3 4 4 5 4 9 14 16 19 28 37 40
10 4 4 11 14 7 3 4 2 2 3 5 4 3 4 3 3 3 2 1 1 2 3 3 2 3 2 4 1 3 3 4 4 3 4 2 5 5 5 8 11 17 30 36 40
7 2 10 16 3 4 3 2 2 3 2 2 2 3 5 4 3 2 4 1 3 3 3 1 4 2 2 2 2 1 2 2 4 5 1 3 5 1 5 9 15 21 28 33 35
6 5 16 22 4 3 2 1 2 4 4 4 4 3 1 5 1 2 3 2 4 2 4 4 1 2 4 4 4 2 3 4 5 3 3 4 5 3 4 11 18 20 27 32 34
7 3 4 15 4 1 4 4 4 4 3 3 2 2 2 3 1 4 2 1 2 2 4 2 2 4 5 5 3 2 0 3 4 3 3 5 7 5 7 7 18 23 25 29 33
5 3 7 4 4 4 4 4 5 5 3 7 1 6 5 2 2 4 3 2 1 3 2 2 2 2 1 0 2 3 4 5 5 4 5 4 5 9 9 6 11 17 23 27 32
4 4 6 3 4 15 8 7 9 4 8 5 5 9 6 5 5 6 6 4 4 2 2 2 2 2 3 2 1 4 5 6 2 2 8 2 8 6 5 8 8 14 22 25 28
15 6 1 2 2 5 5 7 10 12 8 3 9 6 7 3 4 6 7 8 6 6 3 2 4 2 3 3 4 5 7 9 3 3 6 4 7 3 3 8 7 12 17 21 24
Wind_Direction
338 338 342 345 347 349 347 345 340 335 330 328 329 325 330 342 303 336 358 355 354 341 329 349 3 21 48 46 47 64 66 151 194 167 219 200 196 200 245 243 316 276 304 312 316
334 334 336 335 339 342 343 341 339 330 323 320 323 320 331 344 320 347 351 344 331 336 341 358 49 51 58 42 35 79 106 196 194 171 209 218 193 231 339 336 290 307 318 322 321
333 332 333 332 333 336 337 339 337 331 322 316 305 309 314 321 317 347 351 338 313 333 344 346 357 89 71 40 10 130 152 201 228 198 217 213 160 143 52 335 312 307 317 323 320
333 332 334 334 335 334 334 336 335 328 317 316 301 308 302 304 298 351 349 343 312 332 340 7 108 89 77 12 334 101 177 176 238 224 202 191 143 120 134 314 332 329 324 319 322
331 330 329 330 333 335 335 333 334 329 315 313 304 306 304 290 271 329 341 348 336 358 22 93 69 75 107 319 324 184 219 229 255 242 208 142 113 174 243 349 349 346 334 326 325
323 323 325 328 331 334 337 337 330 333 320 309 300 302 283 280 275 340 339 360 301 51 64 68 62 46 84 269 178 282 256 290 321 256 174 134 76 199 312 352 348 344 336 332 332
320 319 320 323 332 336 336 336 333 328 323 304 296 296 271 270 270 321 354 323 157 130 94 53 41 27 338 308 346 291 315 352 6 152 148 131 241 232 329 347 343 335 334 337 336
311 313 316 321 326 330 337 335 329 329 323 302 297 286 271 271 280 309 336 270 216 188 162 45 2 350 352 312 24 51 43 356 295 159 177 133 271 261 318 346 342 337 338 336 336
299 304 312 316 323 323 324 323 318 319 314 293 285 278 274 273 289 309 329 299 234 192 198 285 353 49 33 38 10 10 252 328 320 68 161 194 275 267 314 331 335 338 341 334 334
298 297 303 309 315 323 323 321 312 295 271 269 252 276 254 264 280 314 308 276 219 207 141 136 46 60 37 51 250 288 311 240 245 287 327 261 277 286 327 327 331 340 341 335 333
286 290 293 302 311 326 321 327 321 290 255 245 232 244 261 289 299 272 319 258 228 129 146 44 55 70 258 223 268 242 242 233 254 278 338 209 235 239 356 338 335 344 342 337 333
273 283 289 300 309 316 317 319 307 287 294 269 249 259 287 295 289 303 305 214 192 143 101 46 224 200 232 211 285 247 232 274 293 269 316 205 254 292 353 316 344 347 342 337 335
267 273 280 298 303 305 304 309 315 315 277 311 238 270 282 300 262 328 354 240 123 121 145 172 152 312 192 181 337 247 222 145 237 316 255 100 312 338 315 320 349 353 345 345 342
255 262 269 286 291 298 305 312 315 335 310 212 25 15 360 322 34 6 6 288 18 146 134 142 24 5 229 232 132 293 195 341 277 170 230 21 287 305 323 339 350 350 346 345 340
245 250 249 273 258 286 302 305 325 32 315 48 316 357 54 41 323 335 11 325 125 138 118 127 18 356 326 279 175 255 313 240 176 146 32 339 56 263 4 351 333 343 342 342 342
242 240 244 279 267 281 287 254 77 39 255 245 128 23 60 18 357 320 24 67 73 82 48 125 112 75 286 305 249 318 18 41 55 66 30 257 116 308 345 294 322 342 342 342 343
274 238 259 277 273 270 226 145 35 188 66 243 357 356 107 262 266 33 28 24 130 91 220 338 43 326 32 332 41 26 45 347 358 7 211 290 68 247 261 286 266 320 336 343 345
250 261 281 269 266 223 165 77 210 236 223 36 22 331 217 60 74 5 110 96 39 105 106 161 312 12 346 67 266 27 116 135 243 307 285 307 269 291 242 310 329 340 343 352 352
266 261 249 269 247 183 164 199 215 202 125 136 77 231 257 153 185 315 40 166 164 133 158 114 76 57 76 36 42 319 44 177 101 172 37 287 293 330 328 333 345 346 354 356 355
268 272 266 250 193 182 332 234 229 94 117 112 197 178 250 183 182 28 176 121 133 79 124 199 71 24 71 341 44 87 152 43 9 39 330 311 287 252 337 325 332 344 348 352 0
262 246 227 188 173 167 226 227 179 167 147 179 204 188 236 204 201 206 192 139 155 127 99 135 95 279 14 18 9 349 21 54 106 104 152 304 274 209 245 287 309 324 351 358 1
226 187 177 167 156 206 218 216 110 181 156 174 196 218 195 200 205 229 191 105 157 154 147 168 132 112 202 302 283 237 124 122 115 279 80 141 277 256 236 299 320 338 357 1 7
194 140 177 177 218 189 297 191 216 165 208 182 209 222 139 201 205 155 119 119 149 129 173 181 42 41 347 358 352 231 134 120 109 85 210 127 272 236 299 326 342 347 0 359 9
167 124 162 204 234 326 170 219 215 214 198 164 170 220 152 182 50 177 145 154 161 136 123 122 112 165 190 204 132 148 243 141 119 106 187 230 296 285 304 318 339 349 2 2 8
238 204 179 182 240 205 196 169 160 204 223 177 206 210 161 154 62 193 132 140 48 166 82 138 151 149 297 235 171 200 163 181 158 179 162 245 226 286 292 276 330 341 356 6 8
214 178 191 196 195 187 194 206 186 163 163 215 222 184 195 164 187 207 133 200 190 82 95 329 129 117 336 106 358 268 212 189 147 188 260 221 283 218 276 303 328 359 357 5 4
219 222 197 154 193 176 201 197 205 142 205 175 191 144 184 135 107 96 115 104 122 142 140 140 136 112 273 2 335 313 217 182 179 217 159 180 229 200 288 298 319 360 0 2 3
Height
1527 1526 1523 1521 1519 1517 1515 1514 1511 1509 1506 1503 1502 1501 1498 1496 1495 1495 1493 1493 1490 1489 1488 1486 1485 1484 1484 1483 1484 1485 1497 1507 1500 1500 1496 1495 1497 1497 1498 1498 1498 1497 1495 1488 1480
1526 1525 1523 1521 1518 1517 1514 1512 1511 1509 1507 1504 1502 1500 1500 1497 1495 1494 1494 1492 1490 1489 1487 1486 1485 1485 1485 1486 1486 1487 1498 1496 1493 1493 1494 1494 1495 1496 1498 1498 1497 1493 1489 1481 1474
1526 1524 1522 1521 1518 1515 1514 1512 1509 1507 1507 1504 1502 1500 1500 1498 1497 1494 1492 1491 1490 1488 1487 1485 1485 1486 1487 1488 1489 1488 1493 1491 1491 1491 1492 1493 1494 1496 1498 1499 1497 1490 1480 1475 1469
1526 1525 1522 1519 1518 1516 1513 1510 1508 1506 1505 1504 1502 1500 1499 1498 1500 1494 1491 1490 1489 1488 1486 1485 1485 1486 1489 1490 1490 1489 1488 1490 1489 1490 1491 1492 1493 1495 1497 1497 1493 1487 1479 1471 1464
1526 1523 1522 1519 1517 1515 1513 1511 1507 1505 1502 1503 1501 1500 1500 1497 1497 1495 1491 1489 1489 1489 1486 1486 1486 1487 1488 1490 1490 1490 1488 1488 1488 1488 1489 1490 1493 1494 1494 1492 1487 1482 1477 1469 1460
1524 1522 1520 1517 1516 1514 1512 1509 1507 1504 1503 1501 1501 1499 1500 1498 1495 1494 1491 1488 1488 1489 1488 1487 1488 1488 1488 1488 1490 1488 1488 1487 1486 1485 1488 1489 1493 1493 1491 1487 1483 1477 1471 1464 1458
1524 1521 1519 1517 1514 1512 1510 1508 1505 1503 1500 1500 1499 1499 1497 1497 1494 1493 1491 1489 1488 1489 1489 1489 1488 1490 1488 1487 1487 1488 1489 1487 1487 1486 1488 1489 1494 1492 1490 1486 1480 1474 1467 1460 1453
1523 1521 1518 1516 1513 1511 1508 1506 1504 1501 1500 1498 1499 1497 1495 1494 1493 1493 1491 1490 1488 1488 1489 1490 1489 1490 1489 1488 1488 1491 1495 1496 1488 1487 1488 1490 1489 1490 1487 1484 1479 1471 1462 1455 1447
1521 1520 1518 1516 1512 1511 1506 1505 1503 1500 1498 1497 1498 1497 1495 1493 1493 1492 1491 1489 1488 1488 1489 1490 1490 1490 1489 1493 1495 1499 1499 1498 1494 1487 1488 1490 1488 1489 1487 1485 1479 1469 1461 1453 1443
1519 1517 1516 1515 1510 1508 1505 1502 1499 1498 1498 1496 1494 1499 1494 1493 1492 1490 1490 1490 1488 1488 1489 1490 1490 1493 1496 1500 1506 1496 1498 1498 1498 1491 1487 1489 1488 1487 1487 1484 1478 1468 1459 1452 1441
1514 1514 1513 1512 1509 1505 1504 1503 1501 1499 1498 1493 1491 1491 1490 1491 1491 1489 1489 1489 1488 1486 1489 1490 1495 1501 1498 1498 1498 1498 1498 1498 1494 1491 1489 1489 1490 1484 1485 1482 1476 1467 1459 1449 1438
1509 1510 1511 1509 1506 1503 1503 1502 1500 1502 1495 1489 1488 1489 1489 1490 1490 1488 1490 1490 1487 1485 1488 1494 1495 1493 1495 1495 1497 1498 1496 1493 1492 1490 1490 1488 1489 1487 1484 1481 1475 1469 1461 1450 1437
1506 1506 1507 1506 1504 1501 1501 1499 1497 1498 1497 1489 1488 1489 1489 1491 1489 1489 1489 1488 1485 1486 1489 1492 1493 1493 1492 1493 1497 1496 1494 1495 1497 1492 1486 1488 1492 1495 1485 1480 1472 1468 1463 1451 1439
1499 1501 1503 1502 1504 1498 1499 1496 1496 1495 1496 1490 1490 1489 1490 1488 1490 1490 1489 1491 1488 1489 1490 1492 1494 1493 1493 1492 1497 1495 1492 1493 1494 1497 1507 1490 1508 1497 1488 1480 1470 1467 1459 1451 1440
1492 1497 1497 1498 1497 1496 1498 1496 1495 1496 1492 1492 1491 1489 1489 1491 1492 1491 1490 1489 1489 1490 1490 1493 1494 1494 1493 1492 1494 1492 1492 1491 1489 1495 1497 1497 1507 1498 1491 1487 1477 1473 1463 1454 1442
1486 1489 1492 1495 1493 1493 1493 1495 1496 1500 1488 1489 1490 1489 1490 1491 1491 1491 1490 1490 1491 1491 1489 1495 1495 1494 1495 1492 1492 1493 1491 1492 1496 1503 1524 1513 1513 1500 1508 1499 1483 1476 1467 1456 1444
1485 1483 1489 1494 1493 1491 1492 1495 1499 1493 1488 1489 1490 1490 1491 1495 1492 1491 1495 1497 1498 1496 1502 1496 1495 1495 1495 1494 1492 1494 1501 1533 1523 1541 1532 1510 1503 1501 1499 1493 1489 1481 1471 1460 1447
1483 1486 1486 1488 1490 1490 1493 1495 1494 1484 1484 1492 1492 1490 1490 1492 1492 1492 1494 1499 1501 1501 1510 1497 1496 1498 1497 1499 1503 1501 1509 1528 1509 1541 1523 1498 1517 1497 1492 1489 1487 1483 1475 1465 1449
1482 1484 1483 1485 1488 1489 1492 1492 1483 1481 1485 1490 1493 1492 1490 1492 1495 1493 1495 1499 1500 1501 1500 1507 1496 1499 1500 1500 1502 1502 1518 1514 1537 1542 1534 1513 1499 1494 1491 1487 1483 1479 1472 1465 1453
1481 1483 1483 1483 1487 1490 1492 1483 1483 1483 1486 1489 1487 1492 1488 1491 1493 1494 1494 1499 1499 1499 1500 1507 1511 1501 1501 1501 1503 1504 1510 1525 1536 1548 1548 1521 1517 1504 1502 1491 1484 1480 1474 1467 1460
1481 1481 1480 1483 1487 1488 1489 1482 1482 1484 1485 1488 1486 1488 1490 1491 1492 1493 1493 1499 1499 1500 1501 1507 1510 1508 1503 1511 1512 1513 1523 1520 1526 1542 1560 1549 1512 1508 1508 1498 1491 1486 1480 1472 1462
1478 1480 1480 1482 1489 1486 1484 1481 1483 1486 1486 1487 1488 1488 1490 1489 1493 1497 1492 1496 1499 1500 1502 1504 1512 1518 1513 1511 1512 1512 1514 1521 1535 1544 1559 1550 1518 1499 1498 1494 1490 1487 1482 1475 1468
1473 1476 1480 1483 1482 1482 1484 1482 1483 1485 1485 1486 1486 1487 1487 1488 1495 1492 1496 1499 1499 1500 1502 1502 1510 1517 1512 1518 1513 1511 1514 1524 1533 1547 1563 1550 1512 1497 1497 1493 1490 1487 1483 1475 1470
1469 1475 1481 1483 1479 1478 1481 1481 1481 1483 1483 1483 1485 1486 1487 1488 1490 1496 1497 1499 1499 1499 1499 1501 1513 1504 1506 1509 1517 1520 1523 1518 1525 1541 1556 1535 1513 1499 1496 1495 1489 1486 1485 1478 1472
1467 1465 1468 1477 1476 1475 1476 1474 1476 1479 1482 1483 1486 1483 1485 1495 1494 1493 1497 1500 1500 1499 1501 1503 1503 1511 1507 1506 1510 1511 1522 1528 1530 1526 1527 1525 1525 1500 1499 1495 1492 1487 1485 1481 1474
1463 1465 1466 1466 1466 1469 1472 1469 1469 1474 1476 1479 1478 1478 1483 1489 1487 1488 1494 1496 1494 1501 1503 1504 1504 1509 1512 1507 1509 1507 1506 1513 1521 1516 1519 1521 1512 1497 1495 1494 1492 1489 1485 1483 1477
1459 1461 1462 1463 1464 1465 1461 1458 1458 1464 1471 1471 1474 1478 1481 1484 1485 1487 1489 1490 1492 1497 1503 1505 1507 1511 1509 1512 1519 1509 1510 1508 1510 1513 1508 1511 1500 1496 1496 1493 1491 1489 1488 1485 1480